Chariton, IA

7:43 PM CDT on May 22, 2017 (GMT -0500)
Chariton Municipal

Weather History for KCNC - February, 2013

Change the Weather History Date:

Monday, February 18, 2013

  Actual Average Record
Temperature  
Mean Temperature 30 °F -  
Max Temperature 42 °F 39 °F 66 °F (1981)
Min Temperature 17 °F 18 °F -20 °F (1978)
Degree Days  
Heating Degree Days 36    
Moisture  
Dew Point 27 °F    
Average Humidity 75    
Maximum Humidity 87    
Minimum Humidity 65    
Precipitation  
Precipitation 0.00 in - - ()
Sea Level Pressure  
Sea Level Pressure 29.68 in    
Wind  
Wind Speed 15 mph (West)    
Max Wind Speed 30 mph    
Max Gust Speed 39 mph    
Visibility 10 miles    
Events Rain    
Averages and records for this station are not official NWS values.
T = Trace of Precipitation, MM = Missing Value Source: NWS Daily Summary

Daily Weather History Graph

Daily Weather History Graph

Search for Another Location

Airport or City:

Trip Planner

Search our weather history database for the weather conditions in past years. The results will help you decide how hot, cold, wet, or windy it might be!

Date:

Astronomy

Feb. 18, 2013 Rise Set
Actual Time 7:03 AM CST 5:51 PM CST
Civil Twilight 6:35 AM CST 6:19 PM CST
Nautical Twilight 6:03 AM CST 6:51 PM CST
Astronomical Twilight 5:31 AM CST 7:23 PM CST
Moon 11:36 AM CST (2/18) 1:45 AM CST (2/18)
Length of Visible Light 11h 44m
Length of Day
10h 48m
First Quarter, 58% of the Moon is Illuminated
Feb 18
First Quarter
Feb 25
Full
Mar 4
Last Quarter
Mar 11
New
Mar 19
First Quarter

Hourly Weather History & Observations

Time (CST) Temp. Windchill Dew Point Humidity Pressure Visibility Wind Dir Wind Speed Gust Speed Precip Events Conditions
12:15 AM 37.4 °F 29.3 °F 28.4 °F 70% 29.67 in 10.0 mi SSE 12.7 mph - N/A   Clear
12:55 AM 39.2 °F 31.6 °F 28.4 °F 65% 29.65 in 10.0 mi SSE 12.7 mph - N/A   Clear
12:56 AM 39.2 °F 31.2 °F 28.4 °F 65% 29.65 in 10.0 mi SSE 13.8 mph - N/A   Clear
1:15 AM 39.2 °F 31.2 °F 30.2 °F 70% 29.65 in 10.0 mi SSE 13.8 mph - N/A   Clear
1:35 AM 39.2 °F 31.6 °F 30.2 °F 70% 29.64 in 10.0 mi SSE 12.7 mph - N/A   Clear
1:55 AM 39.2 °F 32.0 °F 30.2 °F 70% 29.63 in 10.0 mi SSE 11.5 mph - N/A   Clear
2:15 AM 39.2 °F 32.5 °F 30.2 °F 70% 29.62 in 10.0 mi SSE 10.4 mph - N/A   Clear
2:35 AM 39.2 °F 30.8 °F 30.2 °F 70% 29.61 in 10.0 mi South 15.0 mph - N/A   Clear
2:55 AM 41.0 °F 32.8 °F 30.2 °F 65% 29.60 in 10.0 mi South 16.1 mph - N/A   Clear
3:15 AM 41.0 °F 33.1 °F 30.2 °F 65% 29.59 in 10.0 mi South 15.0 mph - N/A   Clear
3:35 AM 41.0 °F 33.1 °F 32.0 °F 70% 29.58 in 10.0 mi South 15.0 mph - N/A   Clear
3:55 AM 41.0 °F 33.1 °F 32.0 °F 70% 29.58 in 10.0 mi South 15.0 mph - N/A   Clear
4:15 AM 39.2 °F 30.8 °F 32.0 °F 75% 29.57 in 10.0 mi South 15.0 mph - N/A   Clear
4:35 AM 39.2 °F 31.2 °F 32.0 °F 75% 29.57 in 10.0 mi South 13.8 mph - N/A   Clear
4:55 AM 41.0 °F 33.5 °F 32.0 °F 70% 29.57 in 10.0 mi South 13.8 mph - N/A   Clear
5:15 AM 39.2 °F 32.0 °F 32.0 °F 75% 29.58 in 10.0 mi South 11.5 mph - N/A   Clear
5:35 AM 39.2 °F 32.0 °F 32.0 °F 75% 29.58 in 10.0 mi South 11.5 mph - N/A   Clear
5:55 AM 39.2 °F 32.5 °F 32.0 °F 75% 29.57 in 10.0 mi South 10.4 mph - N/A   Clear
6:15 AM 37.4 °F 30.3 °F 32.0 °F 81% 29.56 in 10.0 mi South 10.4 mph - N/A   Clear
6:35 AM 37.4 °F 30.3 °F 32.0 °F 81% 29.56 in 10.0 mi South 10.4 mph - N/A   Clear
6:55 AM 39.2 °F 32.5 °F 33.8 °F 81% 29.56 in 10.0 mi South 10.4 mph - N/A   Clear
7:15 AM 39.2 °F 32.5 °F 33.8 °F 81% 29.55 in 10.0 mi South 10.4 mph - N/A   Clear
7:35 AM 39.2 °F 33.0 °F 33.8 °F 81% 29.56 in 10.0 mi South 9.2 mph - N/A   Clear
7:55 AM 39.2 °F 34.2 °F 33.8 °F 81% 29.56 in 10.0 mi South 6.9 mph - N/A   Clear
8:15 AM 41.0 °F 37.1 °F 33.8 °F 76% 29.58 in 10.0 mi SW 5.8 mph - N/A   Clear
8:35 AM 42.8 °F 38.6 °F 33.8 °F 70% 29.58 in 10.0 mi WSW 6.9 mph - N/A   Clear
8:55 AM 42.8 °F 39.3 °F 33.8 °F 70% 29.59 in 10.0 mi West 5.8 mph - N/A   Clear
9:15 AM 42.8 °F 37.0 °F 33.8 °F 70% 29.59 in 10.0 mi WNW 10.4 mph - N/A   Scattered Clouds
9:35 AM 42.8 °F 37.0 °F 33.8 °F 70% 29.59 in 10.0 mi West 10.4 mph - N/A   Mostly Cloudy
9:55 AM 42.8 °F 36.6 °F 33.8 °F 70% 29.59 in 10.0 mi West 11.5 mph - N/A   Overcast
10:15 AM 42.8 °F 35.8 °F 33.8 °F 70% 29.59 in 10.0 mi WNW 13.8 mph 17.3 mph N/A   Mostly Cloudy
10:35 AM 41.0 °F 34.3 °F 33.8 °F 76% 29.60 in 10.0 mi NW 11.5 mph 23.0 mph N/A   Overcast
10:55 AM 41.0 °F 33.9 °F 33.8 °F 76% 29.60 in 10.0 mi NNW 12.7 mph 17.3 mph N/A   Overcast
11:15 AM 41.0 °F 33.5 °F 33.8 °F 76% 29.60 in 10.0 mi NNW 13.8 mph 18.4 mph N/A   Overcast
11:35 AM 42.8 °F 36.6 °F 33.8 °F 70% 29.62 in 10.0 mi NW 11.5 mph - N/A   Overcast
11:55 AM 42.8 °F 35.4 °F 35.6 °F 76% 29.61 in 10.0 mi NNW 15.0 mph 19.6 mph N/A   Light Drizzle
12:15 PM 42.8 °F 35.1 °F 35.6 °F 76% 29.62 in 10.0 mi NW 16.1 mph 23.0 mph N/A   Light Drizzle
12:35 PM 39.2 °F 29.6 °F 33.8 °F 81% 29.62 in 10.0 mi NW 19.6 mph 28.8 mph N/A   Light Drizzle
12:55 PM 37.4 °F 27.8 °F 33.8 °F 87% 29.63 in 10.0 mi NW 17.3 mph 33.4 mph N/A   Drizzle
1:15 PM 37.4 °F 26.4 °F 33.8 °F 87% 29.62 in 10.0 mi NW 23.0 mph 28.8 mph N/A Rain Rain
1:35 PM 37.4 °F 26.9 °F 33.8 °F 87% 29.62 in 10.0 mi NW 20.7 mph 29.9 mph N/A Rain Rain
1:55 PM 37.4 °F 27.2 °F 33.8 °F 87% 29.62 in 10.0 mi NW 19.6 mph 27.6 mph N/A   Light Drizzle
2:15 PM 37.4 °F 27.2 °F 33.8 °F 87% 29.63 in 10.0 mi NW 19.6 mph 26.5 mph N/A Rain Light Rain
2:35 PM 37.4 °F 25.6 °F 32.0 °F 81% 29.64 in 10.0 mi NW 26.5 mph 38.0 mph N/A   Overcast
2:55 PM 33.8 °F 21.6 °F 28.4 °F 81% 29.65 in 10.0 mi NW 23.0 mph 36.8 mph N/A   Overcast
3:15 PM 32.0 °F 18.9 °F 28.4 °F 87% 29.66 in 10.0 mi NW 24.2 mph 35.7 mph N/A   Overcast
3:35 PM 30.2 °F 15.9 °F 26.6 °F 86% 29.67 in 5.0 mi NW 26.5 mph 33.4 mph N/A   Overcast
3:55 PM 30.2 °F 16.5 °F 26.6 °F 86% 29.69 in 5.0 mi NW 24.2 mph 32.2 mph N/A   Overcast
4:15 PM 30.2 °F 15.9 °F 24.8 °F 80% 29.70 in 10.0 mi NW 26.5 mph 39.1 mph N/A   Overcast
4:35 PM 30.2 °F 15.7 °F 23.0 °F 75% 29.71 in 10.0 mi NW 27.6 mph 34.5 mph N/A   Mostly Cloudy
4:55 PM 30.2 °F 17.4 °F 23.0 °F 75% 29.73 in 10.0 mi NW 20.7 mph 29.9 mph N/A   Overcast
5:35 PM 28.4 °F 14.1 °F 21.2 °F 74% 29.76 in 10.0 mi NW 24.2 mph 34.5 mph N/A   Overcast
5:55 PM 28.4 °F 15.4 °F 21.2 °F 74% 29.77 in 10.0 mi NW 19.6 mph 28.8 mph N/A   Mostly Cloudy
6:15 PM 28.4 °F 13.0 °F 21.2 °F 74% 29.78 in 10.0 mi NW 28.8 mph 34.5 mph N/A   Overcast
6:35 PM 28.4 °F 15.4 °F 19.4 °F 69% 29.80 in 10.0 mi NW 19.6 mph 38.0 mph N/A   Mostly Cloudy
6:55 PM 26.6 °F 12.7 °F 19.4 °F 74% 29.82 in 10.0 mi NW 20.7 mph 28.8 mph N/A   Scattered Clouds
7:15 PM 26.6 °F 12.0 °F 17.6 °F 69% 29.83 in 10.0 mi NW 23.0 mph 35.7 mph N/A   Mostly Cloudy
7:35 PM 26.6 °F 11.4 °F 17.6 °F 69% 29.84 in 10.0 mi WNW 25.3 mph 39.1 mph N/A   Mostly Cloudy
7:55 PM 24.8 °F 7.9 °F 15.8 °F 69% 29.85 in 10.0 mi NW 29.9 mph 38.0 mph N/A   Overcast
8:15 PM 24.8 °F 8.4 °F 15.8 °F 69% 29.86 in 10.0 mi NW 27.6 mph 32.2 mph N/A   Scattered Clouds
8:35 PM 24.8 °F 11.1 °F 15.8 °F 69% 29.86 in 10.0 mi WNW 18.4 mph 26.5 mph N/A   Scattered Clouds
8:55 PM 24.8 °F 8.1 °F 15.8 °F 69% 29.87 in 10.0 mi NW 28.8 mph 35.7 mph N/A   Mostly Cloudy
9:15 PM 23.0 °F 6.9 °F 14.0 °F 68% 29.88 in 10.0 mi NW 24.2 mph 31.1 mph N/A   Scattered Clouds
9:35 PM 21.2 °F 6.8 °F 15.8 °F 80% 29.88 in 10.0 mi WNW 17.3 mph 23.0 mph N/A   Scattered Clouds
9:55 PM 21.2 °F 4.5 °F 15.8 °F 80% 29.88 in 10.0 mi WNW 24.2 mph 33.4 mph N/A   Mostly Cloudy
10:15 PM 21.2 °F 6.8 °F 14.0 °F 74% 29.90 in 10.0 mi WNW 17.3 mph 29.9 mph N/A   Mostly Cloudy
10:35 PM 21.2 °F 6.0 °F 14.0 °F 74% 29.90 in 10.0 mi WNW 19.6 mph 31.1 mph N/A   Scattered Clouds
10:55 PM 19.4 °F 2.1 °F 14.0 °F 80% 29.91 in 10.0 mi West 24.2 mph 29.9 mph N/A   Mostly Cloudy
11:15 PM 19.4 °F 2.1 °F 12.2 °F 74% 29.92 in 10.0 mi WNW 24.2 mph 34.5 mph N/A   Scattered Clouds
11:35 PM 17.6 °F -1.0 °F 10.4 °F 73% 29.92 in 10.0 mi WNW 26.5 mph 31.1 mph N/A   Scattered Clouds
11:55 PM 17.6 °F 0.1 °F 10.4 °F 73% 29.94 in 10.0 mi West 23.0 mph 27.6 mph N/A   Clear